Location: Gwatt
(46.7204°N, 7.6223°E)
Time: 06:29:19
(UTC+00:00)

Altair - Visible Passes

Search period start: 28 January 2021 00:00
Search period end: 07 February 2021 00:00
Orbit: 1501 x 1682 km, 47.2° (Epoch: 27 January)

Date Brightness Start Highest point End Pass type
(mag) Time Alt. Az. Time Alt. Az. Time Alt. Az.
28 Jan 9.4 01:31:43 17° ESE 01:31:43 17° ESE 01:35:08 10° E visible
28 Jan 7.9 03:29:45 48° S 03:31:50 55° SE 03:41:36 10° ENE visible
28 Jan 7.7 05:27:48 16° WSW 05:36:23 89° SSE 05:46:38 10° E visible
29 Jan 9.6 01:08:08 13° E 01:08:08 13° E 01:09:31 10° E visible
29 Jan 8.0 03:06:10 51° SSE 03:06:42 51° SE 03:16:22 10° ENE visible
29 Jan 7.6 05:04:12 24° WSW 05:11:09 87° SSE 05:21:23 10° E visible
30 Jan 8.1 02:42:31 47° SE 02:42:31 47° SE 02:51:06 10° ENE visible
30 Jan 7.6 04:40:33 33° WSW 04:45:55 86° SSE 04:56:10 10° E visible
31 Jan 8.4 02:18:48 40° ESE 02:18:48 40° ESE 02:25:50 10° ENE visible
31 Jan 7.6 04:16:50 45° WSW 04:20:42 84° SSE 04:30:56 10° ENE visible
31 Jan 7.8 06:15:39 10° W 06:25:50 89° N 06:36:04 10° E visible
01 Feb 8.8 01:55:03 32° E 01:55:03 32° E 02:00:34 10° ENE visible
01 Feb 7.5 03:53:04 58° WSW 03:55:28 82° SSE 04:05:41 10° ENE visible
01 Feb 7.7 05:51:05 13° W 06:00:35 88° N 06:10:50 10° E visible
02 Feb 9.1 01:31:15 25° E 01:31:15 25° E 01:35:17 10° ENE visible
02 Feb 7.4 03:29:16 73° SSW 03:30:16 79° SSE 03:40:27 10° ENE visible
02 Feb 7.7 05:27:17 19° W 05:35:20 88° N 05:45:35 10° E visible
03 Feb 9.3 01:07:25 19° E 01:07:25 19° E 01:09:58 10° ENE visible
03 Feb 7.5 03:05:26 76° SE 03:05:26 76° SE 03:15:13 10° ENE visible
03 Feb 7.6 05:03:27 26° W 05:10:05 87° N 05:20:21 10° E visible
04 Feb 9.6 00:43:34 13° E 00:43:34 13° E 00:44:40 10° ENE visible
04 Feb 7.8 02:41:35 63° E 02:41:35 63° E 02:49:58 10° ENE visible
04 Feb 7.6 04:39:36 34° W 04:44:51 87° N 04:55:06 10° E visible
05 Feb 8.1 02:17:41 50° E 02:17:41 50° E 02:24:44 10° ENE visible
05 Feb 7.6 04:15:42 45° W 04:19:36 87° N 04:29:51 10° E visible
05 Feb 7.8 06:14:32 10° WNW 06:24:36 74° SSW 06:34:43 10° ESE visible
06 Feb 8.5 01:53:48 39° E 01:53:48 39° E 01:59:30 10° ENE visible
06 Feb 7.5 03:51:49 58° W 03:54:21 87° N 04:04:36 10° E visible
06 Feb 7.8 05:49:49 12° WNW 05:59:24 77° SSW 06:09:33 10° ESE visible
